User: anonymous   Login
Location: Unspecified
(0.0000°N, 0.0000°E)
Time: 20:11:28
(UTC+00:00)
Language:

APRIZESAT 2 (LATINSAT D) - Orbit

View from above orbital plane
View from above orbital plane
View from above satellite
View from above satellite

Ground track
Ground track

The orbit data is extracted from the following two-line orbital elements,

1 28366U 04025A   18114.73791169 -.00000014 +00000-0 +95155-5 0  9990
2 28366 098.3286 023.7366 0107297 197.3135 162.4381 14.36639265724323
Epoch (UTC): 24 April 2018 17:42:35
Eccentricity: 0.0107297
inclination: 98.3286°
perigee height: 693 km
apogee height: 846 km
right ascension of ascending node: 23.7366°
argument of perigee: 197.3135°
revolutions per day: 14.36639265
mean anomaly at epoch: 162.4381°
orbit number at epoch: 72432

The dashed part of the orbit path shows where the satellite is in the earth's shadow,  

DLR